Location: Capannuccia
(43.7000°N, 11.3000°E)
Time: 02:46:28
(UTC+00:00)

NPP - Pass Details

Date: 07 June 2020
Orbit: 826 x 827 km, 98.7° (Epoch: 05 July)

Event Time Altitude Azimuth Distance (km) Brightness Sun altitude
Rises 01:11:57 0° 12° (NNE) 3,377 8.3 -18.2°
Reaches altitude 10° 01:14:19 10° 12° (NNE) 2,439 7.2 -18.0°
Maximum altitude 01:19:43 80° 287° (WNW) 844 3.6 -17.5°
Enters shadow 01:22:35 29° 203° (SSW) 1,483 4.4 -17.2°
